Location: Unspecified
(43.4354°N, 0.0000°E)
Time: 14:07:46
(UTC+00:00)

Courier 1B - Pass Details

Date: 21 June 2019
Orbit: 962 x 1209 km, 28.3° (Epoch: 20 August)

Event Time Altitude Azimuth Distance (km) Brightness Sun altitude
Rises 21:13:30 0° 249° (WSW) 3,963 10.9 -12.8°
Reaches altitude 10° 21:16:49 10° 236° (SW) 3,041 10.1 -13.1°
Maximum altitude 21:22:38 24° 185° (S) 2,201 8.9 -13.8°
Enters shadow 21:25:57 18° 152° (SSE) 2,533 9.0 -14.1°
Drops below altitude 10° 21:28:37 10° 135° (SE) 3,130 - -14.4°
Sets 21:32:05 0° 122° (ESE) 4,103 - -14.8°
